DECAYED

STARLINK-2283, 48014 (Decayed)

Orbit data source: Space-Track

STARLINK-2283, 48014 was a payload satellite owned by SpaceX/Seattle (US) in LEO that was launched on Wed, 24 Mar 2021 UTC via an FALCON 9 launch vehicle from the Air Force Eastern Test Range (AFETR). Payload-class satellites include a variety of spacecraft equipped with specific instruments for various scientific and technological missions. These include communications satellites like Starlink; space stations such as the ISS; scientific satellites like the Hubble; Earth observation satellites from companies like Planet Labs, Umbra, and HawkEye 360; GPS; miniature CubeSats for education and research; and military/defense satellites.

Not visible in the next 10 days
Identifier
48014, 2021-024AP
Orbit
Decayed
Country
Flag of USUS
Related business
Manufacturer
SpaceX/Seattle
Mission
Decayed Commercial Communications
Bus & Motor
STARLINK, Unknown motor
Mass
260 kg wet, ~248 kg dry
Launch date (UTC)
2021-03-24 (5 years ago)
Launch vehicle
FALCON 9
Launch site
Air Force Eastern Test Range (AFETR)
Object type
Payload
Rocket body
Debris
Shape & HBR
Box + 1 Pan, 10.1 m
Radar Cross Section
13.562 m², Large (>1 m²)

Expand to show TLE details & history
Last TLE update: 1 year ago

TLE from 1 year ago
0 STARLINK-2283
1 48014U 21024AP  25117.76344785  .14302167  12533-4  81457-3 0  9996
2 48014  53.0371 212.7690 0007475 342.1376 153.4668 16.41855164227830
Epoch: 2025-04-27T18:19Z
TLE epoch observation values (Epoch: 2025-04-27T18:19:21.894Z)
Latitude
34.07535°
Longitude
-128.46415°
Altitude
167.633 km
Speed
7.808 km/s
True Right ascension
00h 09m 27s
True Declination
33° 54' 06"
Sunlit
Object was in daylight at epoch
Visualization orbit readout
Latitude
Unknown
Longitude
Unknown
Altitude
Unknown
Speed
Unknown
Apparent Right ascension
Unknown
Apparent Declination
Unknown
Sunlit
N/A
Visualization observer readout
Local Sidereal Time
09:55:13
Azimuth
Unknown
Elevation
Unknown
Doppler factor
Unknown
Orbital elements
Apogee altitude
166.049 km
Perigee altitude
156.273 km
Semi-major axis
6,539.298 km
Eccentricity
0.00075
Inclination
53.0371°
RAAN
212.769°
Arg. of periapsis
342.1376°
True anomaly
153.50503°
Mean anomaly
153.4668°
Eccentric anomaly
153.48592°
Mean motion
4.10437 °/min
Orbital period
87.71 mins
BSTAR
0.00081457
Loading maneuver chart data...
Computing Atmospheric mass density...

Documentation

Showing up to 5 results
|